DW8356 Weather Reports


Display with metric or nautical units.
time (UTC)temp
F
wind
direction
speed
MPH
gust
MPH
rain 1hr
in
rain 24hr
in
rain mn
in
humidity
%
barometer
mb
20260504233522 79 199 5.0 19.0 0.00 0.00 0.00 57 1006.5
20260504233033 79 192 4.0 16.0 0.00 0.00 0.00 57 1006.4
20260504232522 80 200 7.0 16.0 0.00 0.00 0.00 56 1006.4
20260504232021 80 141 4.0 14.0 0.00 0.00 0.00 56 1006.4
20260504231544 80 134 4.0 15.0 0.00 0.00 0.00 56 1006.6
20260504231021 80 178 4.0 16.0 0.00 0.00 0.00 55 1006.7
20260504230523 81 198 4.0 15.0 0.00 0.00 0.00 54 1006.8
20260504230050 82 267 5.0 20.0 0.00 0.00 0.00 53 1006.7
20260504225523 81 206 5.0 20.0 0.00 0.00 0.00 54 1006.7
20260504225025 81 171 5.0 14.0 0.00 0.00 0.00 54 1006.8
20260504224537 81 177 3.0 13.0 0.00 0.00 0.00 54 1007.0
20260504224023 81 261 5.0 14.0 0.00 0.00 0.00 54 1006.9
20260504223524 81 217 6.0 14.0 0.00 0.00 0.00 54 1007.0
20260504223038 81 184 4.0 12.0 0.00 0.00 0.00 53 1006.9
20260504222522 82 140 3.0 13.0 0.00 0.00 0.00 52 1006.9
20260504222021 83 201 3.0 13.0 0.00 0.00 0.00 52 1006.8
20260504221540 83 162 3.0 14.0 0.00 0.00 0.00 52 1006.9
20260504221022 82 160 5.0 14.0 0.00 0.00 0.00 51 1006.9
20260504220523 82 211 4.0 14.0 0.00 0.00 0.00 52 1007.1
20260504220041 82 221 4.0 14.0 0.00 0.00 0.00 52 1007.2
20260504215521 83 204 5.0 16.0 0.00 0.00 0.00 51 1007.3
20260504215023 83 271 3.0 16.0 0.00 0.00 0.00 51 1007.3
20260504214537 83 163 4.0 17.0 0.00 0.00 0.00 51 1007.5
20260504214025 83 172 4.0 18.0 0.00 0.00 0.00 51 1007.5
20260504213522 83 186 4.0 18.0 0.00 0.00 0.00 50 1007.6
20260504213038 83 159 3.0 15.0 0.00 0.00 0.00 51 1007.6
20260504212522 83 167 5.0 14.0 0.00 0.00 0.00 50 1007.6
20260504212022 84 233 3.0 10.0 0.00 0.00 0.00 50 1007.8
20260504211539 83 213 3.0 10.0 0.00 0.00 0.00 50 1007.9
20260504211022 84 150 4.0 12.0 0.00 0.00 0.00 50 1008.0
20260504210524 84 182 4.0 15.0 0.00 0.00 0.00 49 1008.0
20260504210043 83 176 5.0 15.0 0.00 0.00 0.00 49 1008.2
20260504205522 84 183 3.0 11.0 0.00 0.00 0.00 49 1008.1
20260504205021 84 139 4.0 11.0 0.00 0.00 0.00 49 1008.5
20260504204547 83 216 3.0 11.0 0.00 0.00 0.00 49 1008.5
20260504204027 84 172 4.0 17.0 0.00 0.00 0.00 48 1008.5
20260504203522 84 120 4.0 17.0 0.00 0.00 0.00 48 1008.7
20260504203053 84 140 5.0 15.0 0.00 0.00 0.00 47 1008.7
20260504202522 84 222 4.0 12.0 0.00 0.00 0.00 47 1008.8
20260504202022 85 199 2.0 13.0 0.00 0.00 0.00 48 1009.0
20260504201540 84 196 3.0 14.0 0.00 0.00 0.00 48 1009.1
20260504201025 84 140 4.0 17.0 0.00 0.00 0.00 47 1009.2
20260504200521 84 146 3.0 19.0 0.00 0.00 0.00 47 1009.4
20260504200038 84 188 4.0 19.0 0.00 0.00 0.00 47 1009.4
20260504195521 84 146 4.0 16.0 0.00 0.00 0.00 47 1009.4
20260504195018 83 124 5.0 14.0 0.00 0.00 0.00 47 1009.5
20260504194538 83 221 3.0 10.0 0.00 0.00 0.00 48 1009.6
20260504194021 83 288 4.0 12.0 0.00 0.00 0.00 47 1009.7
20260504193522 83 196 3.0 12.0 0.00 0.00 0.00 47 1009.7
20260504193038 83 169 4.0 13.0 0.00 0.00 0.00 47 1009.7
20260504192522 82 169 4.0 13.0 0.00 0.00 0.00 48 1009.8
20260504192023 82 181 1.0 12.0 0.00 0.00 0.00 48 1009.9
20260504191535 82 296 3.0 12.0 0.00 0.00 0.00 47 1010.0
20260504191022 83 140 2.0 12.0 0.00 0.00 0.00 47 1010.2
20260504190522 84 212 2.0 10.0 0.00 0.00 0.00 46 1010.2
20260504190050 83 175 3.0 16.0 0.00 0.00 0.00 46 1010.1
20260504185521 83 173 4.0 15.0 0.00 0.00 0.00 46 1010.2
20260504185021 82 169 4.0 14.0 0.00 0.00 0.00 47 1010.3
20260504184540 82 250 2.0 12.0 0.00 0.00 0.00 48 1010.3
20260504184022 82 202 3.0 12.0 0.00 0.00 0.00 47 1010.3
20260504183522 81 188 3.0 14.0 0.00 0.00 0.00 47 1010.4
20260504183039 82 226 4.0 14.0 0.00 0.00 0.00 45 1010.5
20260504182530 82 226 3.0 11.0 0.00 0.00 0.00 47 1010.6
20260504182026 81 230 4.0 11.0 0.00 0.00 0.00 45 1010.7
20260504181542 81 187 2.0 13.0 0.00 0.00 0.00 45 1010.8
20260504181021 81 165 4.0 13.0 0.00 0.00 0.00 45 1010.9
20260504180523 81 179 3.0 12.0 0.00 0.00 0.00 44 1011.0
20260504180039 81 196 3.0 12.0 0.00 0.00 0.00 45 1010.9
20260504175521 81 166 3.0 16.0 0.00 0.00 0.00 43 1011.0
20260504175023 81 180 2.0 16.0 0.00 0.00 0.00 44 1011.2
20260504174536 80 215 4.0 11.0 0.00 0.00 0.00 43 1011.4
20260504174022 80 167 2.0 11.0 0.00 0.00 0.00 43 1011.6
20260504173522 80 200 5.0 12.0 0.00 0.00 0.00 44 1011.6
20260504173035 79 194 4.0 12.0 0.00 0.00 0.00 44 1011.8
20260504172624 79 216 4.0 9.0 0.00 0.00 0.00 45 1011.7
20260504172025 79 227 2.0 8.0 0.00 0.00 0.00 45 1011.7
20260504171539 78 192 3.0 11.0 0.00 0.00 0.00 44 1011.9
20260504171024 79 140 4.0 13.0 0.00 0.00 0.00 45 1012.0
20260504170522 78 253 4.0 13.0 0.00 0.00 0.00 43 1012.1
20260504151021 72 266 3.0 12.0 0.00 0.00 0.00 56 1013.1
20260504150525 72 206 4.0 12.0 0.00 0.00 0.00 55 1013.1
20260504141022 69 194 4.0 9.0 0.00 0.00 0.00 61 1013.3
20260504140525 69 210 3.0 11.0 0.00 0.00 0.00 63 1013.4
20260504130522 65 214 2.0 5.0 0.00 0.00 0.00 68 1013.5
20260504110521 63 173 2.0 9.0 0.00 0.00 0.00 67 1013.0
20260504100520 63 196 1.0 5.0 0.00 0.00 0.00 67 1013.4
20260504081542 65 185 1.0 4.0 0.00 0.00 0.00 57 1013.8
20260504081018 65 192 1.0 4.0 0.00 0.00 0.00 57 1013.8
20260504080521 65 180 1.0 4.0 0.00 0.00 0.00 57 1013.9
20260504050523 68 183 2.0 5.0 0.00 0.00 0.00 53 1015.6
20260504045521 69 199 2.0 5.0 0.00 0.00 0.00 52 1015.9
20260504045018 69 184 2.0 7.0 0.00 0.00 0.00 52 1015.8
20260504044536 69 190 2.0 7.0 0.00 0.00 0.00 52 1015.9
20260504044021 69 180 1.0 5.0 0.00 0.00 0.00 51 1016.0
20260504043520 69 176 2.0 9.0 0.00 0.00 0.00 51 1016.0
20260504043036 69 193 2.0 9.0 0.00 0.00 0.00 51 1016.0
20260504042521 69 215 2.0 7.0 0.00 0.00 0.00 51 1015.9
20260504042018 70 103 1.0 7.0 0.00 0.00 0.00 50 1016.0
20260504041538 70 235 1.0 6.0 0.00 0.00 0.00 49 1016.1
20260504041017 70 179 1.0 5.0 0.00 0.00 0.00 49 1016.1
20260504040518 70 151 1.0 5.0 0.00 0.00 0.00 48 1016.0
20260504040039 70 126 2.0 10.0 0.00 0.00 0.00 48 1016.0
20260504035518 70 196 2.0 10.0 0.00 0.00 0.00 48 1016.0
20260504035020 70 158 1.0 5.0 0.00 0.00 0.00 48 1016.0
20260504034539 70 247 1.0 5.0 0.00 0.00 0.00 47 1016.1
20260504034026 70 210 1.0 4.0 0.00 0.00 0.00 47 1016.0
20260504033517 70 177 1.0 4.0 0.00 0.00 0.00 47 1015.9
20260504033040 71 201 1.0 4.0 0.00 0.00 0.00 47 1015.9
20260504032518 71 188 2.0 4.0 0.00 0.00 0.00 46 1015.9
20260504032018 71 190 1.0 4.0 0.00 0.00 0.00 45 1015.9
20260504031538 71 180 1.0 5.0 0.00 0.00 0.00 44 1016.0
20260504031018 71 222 2.0 6.0 0.00 0.00 0.00 44 1015.9
20260504030521 72 182 1.0 6.0 0.00 0.00 0.00 44 1015.8
20260504030041 72 198 1.0 6.0 0.00 0.00 0.00 44 1015.7
20260504025520 72 213 1.0 7.0 0.00 0.00 0.00 44 1015.7
20260504025018 72 198 2.0 7.0 0.00 0.00 0.00 44 1015.6
20260504024532 72 197 2.0 6.0 0.00 0.00 0.00 43 1015.7
20260504024018 72 132 1.0 5.0 0.00 0.00 0.00 44 1015.8
20260504023518 72 198 1.0 6.0 0.00 0.00 0.00 43 1015.8
20260504023040 73 184 1.0 6.0 0.00 0.00 0.00 43 1015.7
20260504022521 73 193 2.0 5.0 0.00 0.00 0.00 42 1015.7
20260504022018 73 213 1.0 5.0 0.00 0.00 0.00 42 1015.8
20260504021539 73 129 1.0 8.0 0.00 0.00 0.00 42 1015.7
20260504021017 73 171 2.0 8.0 0.00 0.00 0.00 42 1015.8
20260504020517 73 173 2.0 7.0 0.00 0.00 0.00 42 1015.6
20260504020037 73 182 2.0 7.0 0.00 0.00 0.00 42 1015.5
20260504015518 74 144 2.0 9.0 0.00 0.00 0.00 41 1015.6
20260504015026 74 172 2.0 10.0 0.00 0.00 0.00 41 1015.6
20260504014549 74 154 2.0 10.0 0.00 0.00 0.00 41 1015.4
20260504014021 74 180 2.0 8.0 0.00 0.00 0.00 41 1015.5
20260504013518 74 195 3.0 8.0 0.00 0.00 0.00 40 1015.5
20260504013111 75 210 1.0 7.0 0.00 0.00 0.00 39 1015.4
20260504012520 75 161 2.0 7.0 0.00 0.00 0.00 40 1015.4
20260504012020 75 157 2.0 6.0 0.00 0.00 0.00 38 1015.4
20260504011541 75 195 1.0 5.0 0.00 0.00 0.00 37 1015.4
20260504011018 75 236 1.0 4.0 0.00 0.00 0.00 36 1015.2
20260504010522 75 130 1.0 4.0 0.00 0.00 0.00 35 1015.3
20260504010039 76 190 1.0 4.0 0.00 0.00 0.00 35 1015.2
20260504005519 76 198 2.0 4.0 0.00 0.00 0.00 35 1015.3
20260504005019 76 0 1.0 4.0 0.00 0.00 0.00 35 1015.3
20260504004538 77 150 1.0 4.0 0.00 0.00 0.00 35 1015.3
20260504004018 77 185 1.0 8.0 0.00 0.00 0.00 34 1015.3
20260504003519 77 238 1.0 8.0 0.00 0.00 0.00 33 1015.3
20260504003041 78 0 2.0 6.0 0.00 0.00 0.00 34 1015.2
20260504002518 78 204 1.0 6.0 0.00 0.00 0.00 33 1015.2
20260504002018 78 210 1.0 5.0 0.00 0.00 0.00 34 1015.2
20260504001545 78 198 1.0 6.0 0.00 0.00 0.00 34 1015.3
20260504001019 79 221 1.0 6.0 0.00 0.00 0.00 34 1015.3
20260504000518 79 197 1.0 3.0 0.00 0.00 0.00 33 1015.3
20260504000043 79 177 1.0 4.0 0.00 0.00 0.00 33 1015.4
20260503235519 79 168 1.0 4.0 0.00 0.00 0.00 32 1015.4
20260503235020 80 196 1.0 5.0 0.00 0.00 0.00 31 1015.4
20260503234540 80 194 1.0 6.0 0.00 0.00 0.00 32 1015.5
20260503234020 80 159 1.0 6.0 0.00 0.00 0.00 31 1015.5